Location: Montreal
(45.5000°N, 73.5833°W)
Time: 17:37:00
(UTC-04:00)

Vanguard 2 - All Passes

Search period start: 16 July 2018 00:00
Search period end: 26 July 2018 00:00
Orbit: 553 x 2939 km, 32.9° (Epoch: 16 July)

Date Brightness Start Highest point End Pass type
(mag) Time Alt. Az. Time Alt. Az. Time Alt. Az.
16 Jul - 00:26:08 10° W 00:41:53 43° SSW 00:53:37 10° SE visible
16 Jul - 02:40:42 10° W 02:50:35 21° SW 02:58:17 10° S visible
16 Jul - 18:15:23 10° SSW 18:27:15 28° SE 18:40:41 10° E daylight
16 Jul - 20:21:58 10° SW 20:37:31 47° SSE 20:53:16 10° E daylight
16 Jul - 22:32:04 10° WSW 22:48:58 52° S 23:03:17 10° ESE visible
17 Jul - 00:44:25 10° W 00:59:32 39° SSW 01:10:57 10° SE visible
17 Jul - 03:00:25 10° WSW 03:07:48 16° SW 03:13:57 10° SSW visible
17 Jul - 16:32:19 10° SE 16:36:13 11° SE 16:40:22 10° ESE daylight
17 Jul - 18:32:00 10° SSW 18:44:44 33° SSE 18:59:22 10° E daylight
17 Jul - 20:39:33 10° WSW 20:55:24 51° SSE 21:11:21 10° E visible
17 Jul - 22:50:05 10° WSW 23:06:53 51° S 23:21:03 10° ESE visible
18 Jul - 01:02:51 10° W 01:17:05 33° SSW 01:28:03 10° SSE visible
18 Jul - 03:22:38 10° WSW 03:24:55 11° SW 03:27:05 10° SW visible
18 Jul - 16:45:43 10° SSE 16:53:23 17° SE 17:02:11 10° E daylight
18 Jul - 18:48:59 10° SW 19:02:18 39° SSE 19:17:49 10° E daylight
18 Jul - 20:57:16 10° WSW 21:13:19 53° S 21:29:23 10° ESE visible
18 Jul - 23:08:11 10° W 23:24:43 48° SSW 23:38:41 10° SE visible
19 Jul - 01:21:31 10° W 01:34:31 28° SW 01:44:50 10° SSE visible
19 Jul - 17:01:14 10° S 17:10:37 22° SE 17:21:57 10° E daylight
19 Jul - 19:06:14 10° SW 19:20:00 44° SSE 19:36:06 10° E daylight
19 Jul - 21:15:07 10° WSW 21:31:15 53° S 21:47:18 10° ESE visible
19 Jul - 23:26:22 10° W 23:42:30 44° SSW 23:56:08 10° SE visible
20 Jul - 01:40:33 10° W 01:51:51 22° SW 02:01:09 10° S visible
20 Jul - 17:17:32 10° SSW 17:27:56 28° SE 17:41:00 10° E daylight
20 Jul - 19:23:42 10° SW 19:37:45 48° SSE 19:54:17 10° E daylight
20 Jul - 21:33:03 10° WSW 21:49:12 53° S 22:05:09 10° ESE visible
20 Jul - 23:44:40 10° W 00:00:11 39° SSW 00:13:25 10° SE visible
21 Jul - 02:00:18 10° W 02:09:04 17° SW 02:16:40 10° SSW visible
21 Jul - 15:35:13 10° SE 15:37:30 11° SE 15:39:55 10° ESE daylight
21 Jul - 17:34:18 10° SSW 17:45:22 33° SSE 17:59:39 10° E daylight
21 Jul - 19:41:20 10° WSW 19:55:36 51° S 20:12:23 10° ESE daylight
21 Jul - 21:51:04 10° W 22:07:07 51° S 22:22:53 10° ESE visible
22 Jul - 00:03:06 10° W 00:17:45 33° SSW 00:30:25 10° SSE visible
22 Jul - 02:22:06 10° WSW 02:26:14 11° SW 02:30:07 10° SW visible
22 Jul - 15:48:23 10° SSE 15:54:37 16° SE 16:02:06 10° ESE daylight
22 Jul - 17:51:23 10° SW 18:02:55 39° SSE 18:18:05 10° E daylight
22 Jul - 19:59:05 10° WSW 20:13:31 53° S 20:30:24 10° ESE daylight
22 Jul - 22:09:09 10° W 22:24:59 47° SSW 22:40:28 10° SE visible
23 Jul - 00:21:48 10° W 00:35:14 28° SW 00:47:03 10° SSE visible
23 Jul - 16:04:03 10° S 16:11:50 21° SE 16:21:48 10° E daylight
23 Jul - 18:08:44 10° SW 18:20:35 43° SSE 18:36:22 10° E daylight
23 Jul - 20:16:56 10° WSW 20:31:27 53° S 20:48:20 10° ESE daylight
23 Jul - 22:27:19 10° W 22:42:47 43° SSW 22:57:52 10° SE visible
24 Jul - 00:40:55 10° W 00:52:37 22° SW 01:03:08 10° S visible
24 Jul - 16:20:29 10° SSW 16:29:08 26° SE 16:40:48 10° E daylight
24 Jul - 18:26:15 10° SW 18:38:20 47° SSE 18:54:33 10° E daylight
24 Jul - 20:34:52 10° WSW 20:49:24 51° S 21:06:10 10° ESE visible
24 Jul - 22:45:37 10° W 23:00:30 38° SSW 23:15:02 10° SSE visible
25 Jul - 01:00:50 10° WSW 01:09:56 17° SW 01:18:21 10° SSW visible
25 Jul - 16:37:22 10° SSW 16:46:34 32° SSE 16:59:27 10° E daylight
25 Jul - 18:43:55 10° WSW 18:56:11 50° S 19:12:40 10° ESE daylight
25 Jul - 20:52:52 10° W 21:07:19 49° SSW 21:23:53 10° SE visible
25 Jul - 23:04:06 10° W 23:18:08 32° SSW 23:31:53 10° SSE visible
